Location: Asheville, NC
(35.6000°N, 82.5500°W)
Time: 19:13:12

AO-7 - Pass Details

Date: 09 March 2018
Orbit: 1440 x 1459 km, 101.7° (Epoch: 20 March)

Event Time Altitude Azimuth Distance (km) Brightness Sun altitude
Rises 03:27:50 0° 23° (NNE) 4,544 ? -40.5°
Reaches altitude 10° 03:30:48 10° 29° (NNE) 3,560 ? -40.0°
Maximum altitude 03:38:42 47° 101° (ESE) 1,839 ? -38.6°
Enters shadow 03:41:31 36° 146° (SE) 2,139 ? -38.1°
